Time,TemperatureF,DewpointF,PressureIn,WindDirection,WindDirectionDegrees,WindSpeedMPH,WindSpeedGustMPH,Humidity,HourlyPrecipIn,Conditions,Clouds,dailyrainin,SoftwareType,DateUTC
2013-07-27 00:04:00,68.9,52.1,29.65,NW,314,1.0,1.0,55,0.00,,,0.00,Wunderground v.1.15,2013-07-27 06:04:00,
2013-07-27 00:14:00,68.4,52.1,29.65,NW,314,0.0,0.0,56,0.00,,,0.00,Wunderground v.1.15,2013-07-27 06:14:00,
2013-07-27 00:19:00,68.4,52.1,29.65,SW,233,0.0,0.0,56,0.00,,,0.00,Wunderground v.1.15,2013-07-27 06:19:00,
2013-07-27 00:24:00,69.0,52.2,29.65,West,279,0.0,1.0,55,0.00,,,0.00,Wunderground v.1.15,2013-07-27 06:24:00,
2013-07-27 00:29:00,68.9,53.0,29.65,NNE,28,1.0,1.0,57,0.00,,,0.00,Wunderground v.1.15,2013-07-27 06:29:00,
2013-07-27 00:34:00,68.2,51.9,29.65,NE,42,2.0,2.0,56,0.00,,,0.00,Wunderground v.1.15,2013-07-27 06:34:00,
2013-07-27 00:44:00,68.0,52.2,29.65,NE,42,0.0,1.0,57,0.00,,,0.00,Wunderground v.1.15,2013-07-27 06:44:00,
2013-07-27 00:54:00,67.4,52.1,29.65,NE,42,1.0,2.0,58,0.00,,,0.00,Wunderground v.1.15,2013-07-27 06:54:00,
2013-07-27 00:59:00,66.8,52.0,29.65,NE,42,1.0,1.0,59,0.00,,,0.00,Wunderground v.1.15,2013-07-27 06:59:00,
2013-07-27 01:04:00,66.8,51.5,29.64,NE,42,1.0,1.0,58,0.00,,,0.00,Wunderground v.1.15,2013-07-27 07:04:00,
2013-07-27 01:14:00,67.4,52.1,29.64,NE,42,0.0,1.0,58,0.00,,,0.00,Wunderground v.1.15,2013-07-27 07:14:00,
2013-07-27 01:24:00,67.2,51.9,29.65,NE,42,0.0,0.0,58,0.00,,,0.00,Wunderground v.1.15,2013-07-27 07:24:00,
2013-07-27 01:29:00,67.2,51.9,29.65,NE,42,0.0,0.0,58,0.00,,,0.00,Wunderground v.1.15,2013-07-27 07:29:00,
2013-07-27 01:34:00,67.4,52.1,29.65,NE,42,0.0,0.0,58,0.00,,,0.00,Wunderground v.1.15,2013-07-27 07:34:00,
2013-07-27 01:39:00,67.5,52.2,29.64,NE,42,0.0,0.0,58,0.00,,,0.00,Wunderground v.1.15,2013-07-27 07:39:00,
2013-07-27 01:44:00,67.5,52.2,29.64,NE,41,0.0,0.0,58,0.00,,,0.00,Wunderground v.1.15,2013-07-27 07:44:00,
2013-07-27 01:54:00,66.1,51.8,29.65,NE,41,0.0,0.0,60,0.00,,,0.00,Wunderground v.1.15,2013-07-27 07:54:00,
2013-07-27 01:59:00,65.8,51.5,29.65,NE,40,1.0,1.0,60,0.00,,,0.00,Wunderground v.1.15,2013-07-27 07:59:00,
2013-07-27 02:04:00,65.5,51.2,29.64,NE,40,1.0,1.0,60,0.00,,,0.00,Wunderground v.1.15,2013-07-27 08:04:00,
2013-07-27 02:14:00,65.4,50.7,29.66,NE,40,1.0,1.0,59,0.00,,,0.00,Wunderground v.1.15,2013-07-27 08:14:00,
2013-07-27 02:19:00,66.0,50.3,29.65,NE,40,0.0,0.0,57,0.00,,,0.00,Wunderground v.1.15,2013-07-27 08:19:00,
2013-07-27 02:29:00,65.3,51.1,29.66,NE,38,1.0,1.0,60,0.00,,,0.00,Wunderground v.1.15,2013-07-27 08:29:00,
2013-07-27 02:34:00,65.9,51.2,29.65,NE,39,1.0,1.0,59,0.00,,,0.00,Wunderground v.1.15,2013-07-27 08:34:00,
2013-07-27 02:39:00,66.9,51.2,29.64,NE,40,0.0,1.0,57,0.00,,,0.00,Wunderground v.1.15,2013-07-27 08:39:00,
2013-07-27 02:49:00,67.5,52.2,29.65,North,5,2.0,2.0,58,0.00,,,0.00,Wunderground v.1.15,2013-07-27 08:49:00,
2013-07-27 02:59:00,66.6,52.3,29.65,North,5,0.0,0.0,60,0.00,,,0.00,Wunderground v.1.15,2013-07-27 08:59:00,
2013-07-27 03:04:00,66.5,52.2,29.65,WNW,291,0.0,3.0,60,0.00,,,0.00,Wunderground v.1.15,2013-07-27 09:04:00,
2013-07-27 03:14:00,67.1,53.2,29.66,West,269,3.0,3.0,61,0.00,,,0.00,Wunderground v.1.15,2013-07-27 09:14:00,
2013-07-27 03:19:00,67.1,52.3,29.66,West,269,2.0,2.0,59,0.00,,,0.00,Wunderground v.1.15,2013-07-27 09:19:00,
2013-07-27 03:29:00,67.2,51.0,29.66,North,5,2.0,4.0,56,0.00,,,0.00,Wunderground v.1.15,2013-07-27 09:29:00,
2013-07-27 03:34:00,67.5,50.3,29.65,North,360,2.0,4.0,54,0.00,,,0.00,Wunderground v.1.15,2013-07-27 09:34:00,
2013-07-27 03:39:00,67.8,51.0,29.65,SW,232,1.0,6.0,55,0.00,,,0.00,Wunderground v.1.15,2013-07-27 09:39:00,
2013-07-27 03:49:00,67.5,48.2,29.66,NW,313,4.0,4.0,50,0.00,,,0.00,Wunderground v.1.15,2013-07-27 09:49:00,
2013-07-27 03:54:00,67.9,49.1,29.66,NW,313,2.0,4.0,51,0.00,,,0.00,Wunderground v.1.15,2013-07-27 09:54:00,
2013-07-27 03:59:00,67.9,49.1,29.66,NW,313,0.0,0.0,51,0.00,,,0.00,Wunderground v.1.15,2013-07-27 09:59:00,
2013-07-27 04:04:00,67.9,49.1,29.65,ENE,64,1.0,1.0,51,0.00,,,0.00,Wunderground v.1.15,2013-07-27 10:04:00,
2013-07-27 04:14:00,67.0,47.7,29.67,SW,235,2.0,6.0,50,0.00,,,0.00,Wunderground v.1.15,2013-07-27 10:14:00,
2013-07-27 04:19:00,67.1,46.7,29.68,SW,235,1.0,1.0,48,0.00,,,0.00,Wunderground v.1.15,2013-07-27 10:19:00,
2013-07-27 04:24:00,67.6,47.8,29.67,SW,235,0.0,1.0,49,0.00,,,0.00,Wunderground v.1.15,2013-07-27 10:24:00,
2013-07-27 04:34:00,67.7,48.9,29.67,SW,235,1.0,1.0,51,0.00,,,0.00,Wunderground v.1.15,2013-07-27 10:34:00,
2013-07-27 04:39:00,67.5,48.2,29.68,SW,235,1.0,1.0,50,0.00,,,0.00,Wunderground v.1.15,2013-07-27 10:39:00,
2013-07-27 04:44:00,67.8,47.9,29.67,SW,235,0.0,1.0,49,0.00,,,0.00,Wunderground v.1.15,2013-07-27 10:44:00,
2013-07-27 04:54:00,67.9,47.5,29.68,SW,235,0.0,0.0,48,0.00,,,0.00,Wunderground v.1.15,2013-07-27 10:54:00,
2013-07-27 05:04:00,68.1,49.3,29.67,West,270,0.0,1.0,51,0.00,,,0.00,Wunderground v.1.15,2013-07-27 11:04:00,
2013-07-27 05:14:00,67.5,49.8,29.68,NNE,19,2.0,3.0,53,0.00,,,0.00,Wunderground v.1.15,2013-07-27 11:14:00,
2013-07-27 05:19:00,66.8,50.1,29.69,NNE,24,2.0,2.0,55,0.00,,,0.00,Wunderground v.1.15,2013-07-27 11:19:00,
2013-07-27 05:24:00,66.2,50.5,29.69,NE,45,2.0,2.0,57,0.00,,,0.00,Wunderground v.1.15,2013-07-27 11:24:00,
2013-07-27 05:29:00,66.0,50.3,29.69,NE,44,2.0,2.0,57,0.00,,,0.00,Wunderground v.1.15,2013-07-27 11:29:00,
2013-07-27 05:34:00,66.1,50.4,29.70,NE,44,1.0,2.0,57,0.00,,,0.00,Wunderground v.1.15,2013-07-27 11:34:00,
2013-07-27 05:44:00,66.2,50.5,29.70,NE,44,2.0,4.0,57,0.00,,,0.00,Wunderground v.1.15,2013-07-27 11:44:00,
2013-07-27 05:54:00,66.4,50.2,29.70,NE,44,0.0,1.0,56,0.00,,,0.00,Wunderground v.1.15,2013-07-27 11:54:00,
2013-07-27 05:59:00,66.3,50.6,29.70,NE,44,0.0,0.0,57,0.00,,,0.00,Wunderground v.1.15,2013-07-27 11:59:00,
2013-07-27 06:04:00,66.2,51.4,29.71,NNE,24,1.0,1.0,59,0.00,,,0.00,Wunderground v.1.15,2013-07-27 12:04:00,
2013-07-27 06:14:00,65.2,51.0,29.72,NNE,24,0.0,0.0,60,0.00,,,0.00,Wunderground v.1.15,2013-07-27 12:14:00,
2013-07-27 06:19:00,64.8,50.6,29.72,NNE,24,0.0,0.0,60,0.00,,,0.00,Wunderground v.1.15,2013-07-27 12:19:00,
2013-07-27 06:24:00,64.6,50.4,29.72,NNE,22,0.0,0.0,60,0.00,,,0.00,Wunderground v.1.15,2013-07-27 12:24:00,
2013-07-27 06:29:00,64.1,50.8,29.73,NNE,23,0.0,0.0,62,0.00,,,0.00,Wunderground v.1.15,2013-07-27 12:29:00,
2013-07-27 06:39:00,63.1,50.3,29.73,West,276,1.0,3.0,63,0.00,,,0.00,Wunderground v.1.15,2013-07-27 12:39:00,
2013-07-27 06:44:00,62.6,49.8,29.74,SW,225,2.0,3.0,63,0.00,,,0.00,Wunderground v.1.15,2013-07-27 12:44:00,
2013-07-27 06:49:00,62.8,50.0,29.74,SW,225,1.0,1.0,63,0.00,,,0.00,Wunderground v.1.15,2013-07-27 12:49:00,
2013-07-27 06:54:00,62.9,51.0,29.74,SW,225,0.0,1.0,65,0.00,,,0.00,Wunderground v.1.15,2013-07-27 12:54:00,
2013-07-27 06:59:00,62.5,51.0,29.74,SW,227,0.0,0.0,66,0.00,,,0.00,Wunderground v.1.15,2013-07-27 12:59:00,
2013-07-27 07:04:00,62.7,50.8,29.76,SW,227,0.0,0.0,65,0.00,,,0.00,Wunderground v.1.15,2013-07-27 13:04:00,
2013-07-27 07:14:00,63.3,50.9,29.76,SW,228,0.0,0.0,64,0.00,,,0.00,Wunderground v.1.15,2013-07-27 13:14:00,
2013-07-27 07:19:00,63.7,50.9,29.75,WSW,255,0.0,0.0,63,0.00,,,0.00,Wunderground v.1.15,2013-07-27 13:19:00,
2013-07-27 07:24:00,64.0,51.1,29.75,WSW,255,0.0,0.0,63,0.00,,,0.00,Wunderground v.1.15,2013-07-27 13:24:00,
2013-07-27 07:29:00,64.1,51.2,29.75,WSW,255,0.0,0.0,63,0.00,,,0.00,Wunderground v.1.15,2013-07-27 13:29:00,
2013-07-27 07:34:00,64.4,51.1,29.75,WSW,256,0.0,0.0,62,0.00,,,0.00,Wunderground v.1.15,2013-07-27 13:34:00,
2013-07-27 07:44:00,65.0,52.1,29.75,WSW,256,0.0,0.0,63,0.00,,,0.00,Wunderground v.1.15,2013-07-27 13:44:00,
2013-07-27 07:49:00,65.0,52.9,29.75,WSW,256,0.0,0.0,65,0.00,,,0.00,Wunderground v.1.15,2013-07-27 13:49:00,
2013-07-27 07:54:00,64.9,52.0,29.75,WSW,256,0.0,3.0,63,0.00,,,0.00,Wunderground v.1.15,2013-07-27 13:54:00,
2013-07-27 07:59:00,64.8,52.3,29.75,WSW,256,0.0,0.0,64,0.00,,,0.00,Wunderground v.1.15,2013-07-27 13:59:00,
2013-07-27 08:04:00,65.3,51.9,29.75,WSW,256,0.0,0.0,62,0.00,,,0.00,Wunderground v.1.15,2013-07-27 14:04:00,
2013-07-27 08:14:00,67.0,53.5,29.78,WSW,256,0.0,0.0,62,0.00,,,0.00,Wunderground v.1.15,2013-07-27 14:14:00,
2013-07-27 08:19:00,67.8,54.3,29.78,WSW,256,0.0,0.0,62,0.00,,,0.00,Wunderground v.1.15,2013-07-27 14:19:00,
2013-07-27 08:24:00,68.6,54.6,29.78,WSW,256,0.0,0.0,61,0.00,,,0.00,Wunderground v.1.15,2013-07-27 14:24:00,
2013-07-27 08:34:00,70.6,54.6,29.78,WSW,257,0.0,0.0,57,0.00,,,0.00,Wunderground v.1.15,2013-07-27 14:34:00,
2013-07-27 08:44:00,72.6,54.5,29.77,West,259,0.0,0.0,53,0.00,,,0.00,Wunderground v.1.15,2013-07-27 14:44:00,
2013-07-27 08:49:00,74.1,53.2,29.76,West,260,0.0,0.0,48,0.00,,,0.00,Wunderground v.1.15,2013-07-27 14:49:00,
2013-07-27 08:54:00,75.8,53.5,29.75,West,267,0.0,0.0,46,0.00,,,0.00,Wunderground v.1.15,2013-07-27 14:54:00,
2013-07-27 08:59:00,77.1,54.7,29.74,NNW,334,0.0,0.0,46,0.00,,,0.00,Wunderground v.1.15,2013-07-27 14:59:00,
2013-07-27 09:04:00,78.0,55.5,29.74,NNW,335,0.0,0.0,46,0.00,,,0.00,Wunderground v.1.15,2013-07-27 15:04:00,
2013-07-27 09:14:00,78.7,55.6,29.76,NNW,335,0.0,0.0,45,0.00,,,0.00,Wunderground v.1.15,2013-07-27 15:14:00,
2013-07-27 09:19:00,79.4,55.6,29.76,NNW,336,0.0,0.0,44,0.00,,,0.00,Wunderground v.1.15,2013-07-27 15:19:00,
2013-07-27 09:24:00,80.5,55.3,29.75,SE,125,0.0,0.0,42,0.00,,,0.00,Wunderground v.1.15,2013-07-27 15:24:00,
2013-07-27 09:29:00,81.2,55.3,29.75,SE,125,0.0,0.0,41,0.00,,,0.00,Wunderground v.1.15,2013-07-27 15:29:00,
2013-07-27 09:39:00,81.1,54.5,29.75,SE,131,0.0,1.0,40,0.00,,,0.00,Wunderground v.1.15,2013-07-27 15:39:00,
2013-07-27 09:49:00,81.2,54.6,29.75,SE,140,0.0,0.0,40,0.00,,,0.00,Wunderground v.1.15,2013-07-27 15:49:00,
2013-07-27 09:54:00,81.2,53.9,29.74,SE,140,0.0,0.0,39,0.00,,,0.00,Wunderground v.1.15,2013-07-27 15:54:00,
2013-07-27 09:59:00,81.5,54.8,29.73,SE,140,0.0,0.0,40,0.00,,,0.00,Wunderground v.1.15,2013-07-27 15:59:00,
2013-07-27 10:04:00,82.1,54.7,29.75,SE,140,0.0,0.0,39,0.00,,,0.00,Wunderground v.1.15,2013-07-27 16:04:00,
2013-07-27 10:14:00,84.1,55.0,29.74,ESE,111,0.0,2.0,37,0.00,,,0.00,Wunderground v.1.15,2013-07-27 16:14:00,
2013-07-27 10:19:00,84.8,54.9,29.73,NE,49,0.0,0.0,36,0.00,,,0.00,Wunderground v.1.15,2013-07-27 16:19:00,
2013-07-27 10:24:00,84.8,55.6,29.73,West,269,1.0,2.0,37,0.00,,,0.00,Wunderground v.1.15,2013-07-27 16:24:00,
2013-07-27 10:29:00,84.2,55.1,29.73,West,259,2.0,2.0,37,0.00,,,0.00,Wunderground v.1.15,2013-07-27 16:29:00,
2013-07-27 10:34:00,84.1,55.7,29.73,WSW,254,2.0,2.0,38,0.00,,,0.00,Wunderground v.1.15,2013-07-27 16:34:00,
2013-07-27 10:39:00,84.5,56.8,29.73,WNW,294,1.0,1.0,39,0.00,,,0.00,Wunderground v.1.15,2013-07-27 16:39:00,
2013-07-27 10:49:00,85.7,55.7,29.72,ESE,106,0.0,0.0,36,0.00,,,0.00,Wunderground v.1.15,2013-07-27 16:49:00,
2013-07-27 10:54:00,86.5,57.1,29.71,NNW,346,1.0,1.0,37,0.00,,,0.00,Wunderground v.1.15,2013-07-27 16:54:00,
2013-07-27 10:59:00,86.9,56.0,29.71,NNW,329,1.0,1.0,35,0.00,,,0.00,Wunderground v.1.15,2013-07-27 16:59:00,
2013-07-27 11:04:00,86.5,55.6,29.72,NNW,327,1.0,1.0,35,0.00,,,0.00,Wunderground v.1.15,2013-07-27 17:04:00,
2013-07-27 11:14:00,85.9,55.1,29.73,NW,315,0.0,1.0,35,0.00,,,0.00,Wunderground v.1.15,2013-07-27 17:14:00,
2013-07-27 11:24:00,87.3,54.7,29.71,East,85,1.0,2.0,33,0.00,,,0.00,Wunderground v.1.15,2013-07-27 17:24:00,
2013-07-27 11:29:00,88.1,57.0,29.71,NE,51,0.0,1.0,35,0.00,,,0.00,Wunderground v.1.15,2013-07-27 17:29:00,
2013-07-27 11:34:00,88.3,55.6,29.70,NE,46,1.0,1.0,33,0.00,,,0.00,Wunderground v.1.15,2013-07-27 17:34:00,
2013-07-27 11:44:00,87.9,56.0,29.70,NNE,30,2.0,3.0,34,0.00,,,0.00,Wunderground v.1.15,2013-07-27 17:44:00,
2013-07-27 11:49:00,88.1,56.2,29.70,North,360,1.0,1.0,34,0.00,,,0.00,Wunderground v.1.15,2013-07-27 17:49:00,
2013-07-27 11:54:00,88.5,56.6,29.68,North,360,1.0,1.0,34,0.00,,,0.00,Wunderground v.1.15,2013-07-27 17:54:00,
2013-07-27 11:59:00,88.4,54.8,29.69,ESE,123,0.0,0.0,32,0.00,,,0.00,Wunderground v.1.15,2013-07-27 17:59:00,
2013-07-27 12:04:00,88.8,56.0,29.69,East,80,1.0,3.0,33,0.00,,,0.00,Wunderground v.1.15,2013-07-27 18:04:00,
2013-07-27 12:14:00,89.4,54.8,29.69,NE,42,3.0,3.0,31,0.00,,,0.00,Wunderground v.1.15,2013-07-27 18:14:00,
2013-07-27 12:24:00,89.8,55.1,29.69,NE,46,1.0,2.0,31,0.00,,,0.00,Wunderground v.1.15,2013-07-27 18:24:00,
2013-07-27 12:29:00,90.2,57.2,29.68,NW,317,1.0,2.0,33,0.00,,,0.00,Wunderground v.1.15,2013-07-27 18:29:00,
2013-07-27 12:34:00,90.6,56.7,29.67,North,5,1.0,2.0,32,0.00,,,0.00,Wunderground v.1.15,2013-07-27 18:34:00,
2013-07-27 12:39:00,91.1,56.3,29.67,NW,306,1.0,1.0,31,0.00,,,0.00,Wunderground v.1.15,2013-07-27 18:39:00,
2013-07-27 12:44:00,91.0,56.2,29.66,West,267,0.0,1.0,31,0.00,,,0.00,Wunderground v.1.15,2013-07-27 18:44:00,
2013-07-27 12:49:00,91.1,55.3,29.66,NW,321,0.0,0.0,30,0.00,,,0.00,Wunderground v.1.15,2013-07-27 18:49:00,
2013-07-27 12:59:00,91.1,55.3,29.65,ENE,63,1.0,5.0,30,0.00,,,0.00,Wunderground v.1.15,2013-07-27 18:59:00,
2013-07-27 13:04:00,91.0,55.3,29.66,NNE,32,3.0,5.0,30,0.00,,,0.00,Wunderground v.1.15,2013-07-27 19:04:00,
2013-07-27 13:14:00,90.5,54.8,29.65,NE,50,3.0,3.0,30,0.00,,,0.00,Wunderground v.1.15,2013-07-27 19:14:00,
2013-07-27 13:19:00,90.2,55.5,29.65,NW,326,2.0,2.0,31,0.00,,,0.00,Wunderground v.1.15,2013-07-27 19:19:00,
2013-07-27 13:29:00,90.1,55.4,29.64,North,355,0.0,2.0,31,0.00,,,0.00,Wunderground v.1.15,2013-07-27 19:29:00,
2013-07-27 13:34:00,89.9,55.2,29.64,NE,37,1.0,2.0,31,0.00,,,0.00,Wunderground v.1.15,2013-07-27 19:34:00,
2013-07-27 13:39:00,89.9,55.2,29.64,NNE,25,1.0,1.0,31,0.00,,,0.00,Wunderground v.1.15,2013-07-27 19:39:00,
2013-07-27 13:49:00,91.5,56.6,29.63,North,360,1.0,1.0,31,0.00,,,0.00,Wunderground v.1.15,2013-07-27 19:49:00,
2013-07-27 13:59:00,92.4,55.5,29.62,NNE,30,2.0,2.0,29,0.00,,,0.00,Wunderground v.1.15,2013-07-27 19:59:00,
2013-07-27 14:04:00,91.8,56.0,29.62,SSW,206,2.0,2.0,30,0.00,,,0.00,Wunderground v.1.15,2013-07-27 20:04:00,
2013-07-27 14:14:00,91.9,56.0,29.61,NNE,17,1.0,2.0,30,0.00,,,0.00,Wunderground v.1.15,2013-07-27 20:14:00,
2013-07-27 14:19:00,91.7,55.9,29.61,WSW,257,1.0,1.0,30,0.00,,,0.00,Wunderground v.1.15,2013-07-27 20:19:00,
2013-07-27 14:24:00,91.4,55.6,29.60,WSW,252,1.0,1.0,30,0.00,,,0.00,Wunderground v.1.15,2013-07-27 20:24:00,
2013-07-27 14:29:00,91.9,56.0,29.60,East,82,1.0,1.0,30,0.00,,,0.00,Wunderground v.1.15,2013-07-27 20:29:00,
2013-07-27 14:34:00,92.7,57.6,29.59,South,173,1.0,1.0,31,0.00,,,0.00,Wunderground v.1.15,2013-07-27 20:34:00,
2013-07-27 14:39:00,92.4,56.5,29.59,ENE,78,3.0,3.0,30,0.00,,,0.00,Wunderground v.1.15,2013-07-27 20:39:00,
2013-07-27 14:49:00,93.0,57.0,29.58,ESE,120,5.0,5.0,30,0.00,,,0.00,Wunderground v.1.15,2013-07-27 20:49:00,
2013-07-27 14:54:00,93.7,56.6,29.58,ESE,119,5.0,5.0,29,0.00,,,0.00,Wunderground v.1.15,2013-07-27 20:54:00,
2013-07-27 15:04:00,92.2,57.2,29.58,ESE,121,6.0,11.0,31,0.00,,,0.00,Wunderground v.1.15,2013-07-27 21:04:00,
2013-07-27 15:14:00,88.6,56.6,29.59,ESE,113,7.0,7.0,34,0.00,,,0.00,Wunderground v.1.15,2013-07-27 21:14:00,
2013-07-27 15:19:00,87.2,56.2,29.60,ESE,115,7.0,7.0,35,0.00,,,0.00,Wunderground v.1.15,2013-07-27 21:19:00,
2013-07-27 15:24:00,85.9,55.8,29.62,SSE,165,7.0,7.0,36,0.00,,,0.00,Wunderground v.1.15,2013-07-27 21:24:00,
2013-07-27 15:34:00,79.9,59.0,29.65,SSE,153,13.0,20.0,49,0.00,,,0.00,Wunderground v.1.15,2013-07-27 21:34:00,
2013-07-27 15:39:00,78.7,57.4,29.65,SSE,153,13.0,13.0,48,0.00,,,0.00,Wunderground v.1.15,2013-07-27 21:39:00,
2013-07-27 15:49:00,76.1,58.2,29.67,ESE,117,7.0,7.0,54,0.18,,,0.02,Wunderground v.1.15,2013-07-27 21:49:00,
2013-07-27 15:54:00,74.6,57.4,29.66,ESE,123,7.0,12.0,55,0.42,,,0.05,Wunderground v.1.15,2013-07-27 21:54:00,
2013-07-27 15:59:00,74.0,58.8,29.66,South,180,7.0,7.0,59,0.17,,,0.06,Wunderground v.1.15,2013-07-27 21:59:00,
2013-07-27 16:04:00,74.1,58.4,29.65,SE,134,5.0,7.0,58,0.07,,,0.06,Wunderground v.1.15,2013-07-27 22:04:00,
2013-07-27 16:14:00,74.3,60.0,29.65,East,80,4.0,5.0,61,0.00,,,0.06,Wunderground v.1.15,2013-07-27 22:14:00,
2013-07-27 16:19:00,74.7,61.7,29.64,SSE,164,2.0,2.0,64,0.00,,,0.06,Wunderground v.1.15,2013-07-27 22:19:00,
2013-07-27 16:24:00,75.3,62.3,29.64,SSE,167,1.0,2.0,64,0.00,,,0.06,Wunderground v.1.15,2013-07-27 22:24:00,
2013-07-27 16:29:00,75.7,60.4,29.62,SSE,167,0.0,0.0,59,0.00,,,0.06,Wunderground v.1.15,2013-07-27 22:29:00,
2013-07-27 16:39:00,76.8,62.3,29.62,ESE,111,1.0,3.0,61,0.00,,,0.06,Wunderground v.1.15,2013-07-27 22:39:00,
2013-07-27 16:44:00,77.5,60.6,29.61,ESE,108,1.0,3.0,56,0.00,,,0.06,Wunderground v.1.15,2013-07-27 22:44:00,
2013-07-27 16:49:00,78.0,60.5,29.60,ESE,109,1.0,1.0,55,0.00,,,0.06,Wunderground v.1.15,2013-07-27 22:49:00,
2013-07-27 16:54:00,78.2,60.7,29.59,ENE,72,1.0,4.0,55,0.00,,,0.06,Wunderground v.1.15,2013-07-27 22:54:00,
2013-07-27 16:59:00,78.2,61.2,29.60,ENE,69,3.0,3.0,56,0.00,,,0.06,Wunderground v.1.15,2013-07-27 22:59:00,
2013-07-27 17:04:00,78.1,61.6,29.60,NE,55,5.0,5.0,57,0.00,,,0.06,Wunderground v.1.15,2013-07-27 23:04:00,
2013-07-27 17:14:00,78.2,61.2,29.60,ENE,73,3.0,4.0,56,0.00,,,0.06,Wunderground v.1.15,2013-07-27 23:14:00,
2013-07-27 17:19:00,78.5,60.5,29.60,East,82,2.0,2.0,54,0.00,,,0.06,Wunderground v.1.15,2013-07-27 23:19:00,
2013-07-27 17:24:00,78.6,61.1,29.60,East,80,2.0,2.0,55,0.00,,,0.06,Wunderground v.1.15,2013-07-27 23:24:00,
2013-07-27 17:29:00,78.7,61.2,29.60,East,87,1.0,3.0,55,0.00,,,0.06,Wunderground v.1.15,2013-07-27 23:29:00,
2013-07-27 17:39:00,78.7,61.2,29.60,SSE,150,1.0,1.0,55,0.00,,,0.06,Wunderground v.1.15,2013-07-27 23:39:00,
2013-07-27 17:44:00,78.9,61.4,29.60,SE,141,1.0,1.0,55,0.00,,,0.06,Wunderground v.1.15,2013-07-27 23:44:00,
2013-07-27 17:54:00,78.7,59.6,29.60,SE,142,1.0,5.0,52,0.00,,,0.06,Wunderground v.1.15,2013-07-27 23:54:00,
2013-07-27 17:59:00,78.7,59.6,29.59,SE,142,1.0,1.0,52,0.00,,,0.06,Wunderground v.1.15,2013-07-27 23:59:00,
2013-07-27 18:04:00,78.9,59.8,29.60,SE,145,2.0,2.0,52,0.00,,,0.06,Wunderground v.1.15,2013-07-28 00:04:00,
2013-07-27 18:14:00,79.2,59.5,29.60,SE,125,1.0,1.0,51,0.00,,,0.06,Wunderground v.1.15,2013-07-28 00:14:00,
2013-07-27 18:19:00,79.2,59.0,29.61,SE,126,1.0,2.0,50,0.00,,,0.06,Wunderground v.1.15,2013-07-28 00:19:00,
2013-07-27 18:24:00,79.3,59.0,29.61,SE,126,1.0,2.0,50,0.00,,,0.06,Wunderground v.1.15,2013-07-28 00:24:00,
2013-07-27 18:29:00,79.4,59.1,29.61,SE,126,0.0,0.0,50,0.00,,,0.06,Wunderground v.1.15,2013-07-28 00:29:00,
2013-07-27 18:34:00,79.5,58.7,29.61,SE,125,0.0,1.0,49,0.00,,,0.06,Wunderground v.1.15,2013-07-28 00:34:00,
2013-07-27 18:44:00,79.5,59.2,29.61,NE,55,1.0,2.0,50,0.00,,,0.06,Wunderground v.1.15,2013-07-28 00:44:00,
2013-07-27 18:49:00,79.5,59.2,29.60,ENE,60,1.0,2.0,50,0.00,,,0.06,Wunderground v.1.15,2013-07-28 00:49:00,
2013-07-27 18:54:00,79.6,59.9,29.61,ENE,63,1.0,2.0,51,0.00,,,0.06,Wunderground v.1.15,2013-07-28 00:54:00,
2013-07-27 19:04:00,79.4,59.1,29.59,ENE,63,0.0,0.0,50,0.00,,,0.06,Wunderground v.1.15,2013-07-28 01:04:00,
2013-07-27 19:14:00,78.7,59.6,29.60,ENE,63,0.0,0.0,52,0.00,,,0.06,Wunderground v.1.15,2013-07-28 01:14:00,
2013-07-27 19:19:00,78.4,61.9,29.61,ENE,63,0.0,0.0,57,0.00,,,0.06,Wunderground v.1.15,2013-07-28 01:19:00,
2013-07-27 19:24:00,78.1,62.1,29.61,NE,52,2.0,5.0,58,0.00,,,0.06,Wunderground v.1.15,2013-07-28 01:24:00,
2013-07-27 19:29:00,77.9,61.9,29.61,NE,53,3.0,3.0,58,0.00,,,0.06,Wunderground v.1.15,2013-07-28 01:29:00,
2013-07-27 19:34:00,77.9,61.4,29.61,NE,53,2.0,3.0,57,0.00,,,0.06,Wunderground v.1.15,2013-07-28 01:34:00,
2013-07-27 19:39:00,77.8,60.8,29.61,ENE,57,0.0,2.0,56,0.00,,,0.06,Wunderground v.1.15,2013-07-28 01:39:00,
2013-07-27 19:44:00,77.9,59.4,29.62,East,88,1.0,2.0,53,0.00,,,0.06,Wunderground v.1.15,2013-07-28 01:44:00,
2013-07-27 19:49:00,78.1,58.5,29.62,East,101,2.0,3.0,51,0.00,,,0.06,Wunderground v.1.15,2013-07-28 01:49:00,
2013-07-27 19:59:00,78.3,57.6,29.62,East,93,4.0,4.0,49,0.00,,,0.06,Wunderground v.1.15,2013-07-28 01:59:00,
2013-07-27 20:04:00,78.3,57.0,29.61,East,96,4.0,5.0,48,0.00,,,0.06,Wunderground v.1.15,2013-07-28 02:04:00,
2013-07-27 20:14:00,78.2,55.7,29.56,East,83,4.0,6.0,46,0.00,,,0.06,Wunderground v.1.15,2013-07-28 02:14:00,
2013-07-27 20:19:00,78.1,55.6,29.56,East,81,4.0,4.0,46,0.00,,,0.06,Wunderground v.1.15,2013-07-28 02:19:00,
2013-07-27 20:24:00,77.9,55.5,29.56,East,100,4.0,5.0,46,0.00,,,0.06,Wunderground v.1.15,2013-07-28 02:24:00,
2013-07-27 20:29:00,77.7,55.9,29.56,East,101,2.0,2.0,47,0.00,,,0.06,Wunderground v.1.15,2013-07-28 02:29:00,
2013-07-27 20:34:00,77.4,56.2,29.57,ESE,103,2.0,2.0,48,0.00,,,0.06,Wunderground v.1.15,2013-07-28 02:34:00,
2013-07-27 20:44:00,77.1,56.5,29.58,ESE,102,1.0,5.0,49,0.00,,,0.06,Wunderground v.1.15,2013-07-28 02:44:00,
2013-07-27 20:49:00,76.9,56.3,29.58,East,101,2.0,2.0,49,0.00,,,0.06,Wunderground v.1.15,2013-07-28 02:49:00,
2013-07-27 20:54:00,76.9,55.7,29.58,ESE,109,3.0,3.0,48,0.00,,,0.06,Wunderground v.1.15,2013-07-28 02:54:00,
2013-07-27 20:59:00,77.1,55.9,29.58,East,101,4.0,4.0,48,0.00,,,0.06,Wunderground v.1.15,2013-07-28 02:59:00,
2013-07-27 21:04:00,77.2,57.1,29.57,ESE,111,4.0,4.0,50,0.00,,,0.06,Wunderground v.1.15,2013-07-28 03:04:00,
2013-07-27 21:14:00,76.9,55.7,29.58,SSE,153,3.0,4.0,48,0.00,,,0.06,Wunderground v.1.15,2013-07-28 03:14:00,
2013-07-27 21:19:00,76.9,56.3,29.58,SSE,165,3.0,3.0,49,0.00,,,0.06,Wunderground v.1.15,2013-07-28 03:19:00,
2013-07-27 21:24:00,76.6,58.7,29.58,South,169,4.0,7.0,54,0.00,,,0.06,Wunderground v.1.15,2013-07-28 03:24:00,
2013-07-27 21:29:00,75.8,59.0,29.59,SE,136,5.0,5.0,56,0.00,,,0.06,Wunderground v.1.15,2013-07-28 03:29:00,
2013-07-27 21:34:00,75.6,57.8,29.59,SE,144,5.0,5.0,54,0.00,,,0.06,Wunderground v.1.15,2013-07-28 03:34:00,
2013-07-27 21:39:00,75.5,58.2,29.59,ESE,123,4.0,4.0,55,0.00,,,0.06,Wunderground v.1.15,2013-07-28 03:39:00,
2013-07-27 21:44:00,74.9,58.6,29.59,ESE,107,4.0,4.0,57,0.00,,,0.06,Wunderground v.1.15,2013-07-28 03:44:00,
2013-07-27 21:54:00,73.1,58.4,29.61,SE,130,5.0,12.0,60,0.00,,,0.07,Wunderground v.1.15,2013-07-28 03:54:00,
2013-07-27 21:59:00,72.8,58.1,29.62,ESE,120,6.0,6.0,60,0.00,,,0.07,Wunderground v.1.15,2013-07-28 03:59:00,
2013-07-27 22:04:00,72.7,58.5,29.62,SE,137,5.0,6.0,61,0.00,,,0.07,Wunderground v.1.15,2013-07-28 04:04:00,
2013-07-27 22:09:00,72.8,58.1,29.60,SE,127,5.0,6.0,60,0.00,,,0.07,Wunderground v.1.15,2013-07-28 04:09:00,
2013-07-27 22:14:00,72.7,58.5,29.60,ESE,107,5.0,6.0,61,0.00,,,0.07,Wunderground v.1.15,2013-07-28 04:14:00,
2013-07-27 22:19:00,72.5,58.3,29.61,East,94,4.0,4.0,61,0.00,,,0.07,Wunderground v.1.15,2013-07-28 04:19:00,
2013-07-27 22:24:00,72.2,58.9,29.62,East,83,5.0,9.0,63,0.00,,,0.07,Wunderground v.1.15,2013-07-28 04:24:00,
2013-07-27 22:29:00,71.5,58.7,29.62,ENE,76,6.0,6.0,64,0.00,,,0.07,Wunderground v.1.15,2013-07-28 04:29:00,
2013-07-27 22:34:00,71.1,58.7,29.62,East,87,7.0,7.0,65,0.00,,,0.07,Wunderground v.1.15,2013-07-28 04:34:00,
2013-07-27 22:44:00,70.5,59.0,29.62,East,85,6.0,7.0,67,0.00,,,0.07,Wunderground v.1.15,2013-07-28 04:44:00,
2013-07-27 22:54:00,70.1,59.0,29.63,East,81,6.0,6.0,68,0.00,,,0.07,Wunderground v.1.15,2013-07-28 04:54:00,
2013-07-27 22:59:00,69.8,59.2,29.63,East,79,6.0,6.0,69,0.00,,,0.07,Wunderground v.1.15,2013-07-28 04:59:00,
2013-07-27 23:04:00,69.8,59.2,29.62,ENE,63,5.0,6.0,69,0.00,,,0.07,Wunderground v.1.15,2013-07-28 05:04:00,
2013-07-27 23:14:00,69.9,59.3,29.63,East,86,4.0,7.0,69,0.00,,,0.07,Wunderground v.1.15,2013-07-28 05:14:00,
2013-07-27 23:19:00,69.9,59.3,29.63,ENE,71,6.0,6.0,69,0.00,,,0.07,Wunderground v.1.15,2013-07-28 05:19:00,
2013-07-27 23:29:00,69.4,60.0,29.63,NE,55,4.0,4.0,72,0.00,,,0.07,Wunderground v.1.15,2013-07-28 05:29:00,
2013-07-27 23:34:00,69.2,60.2,29.63,East,101,3.0,5.0,73,0.00,,,0.07,Wunderground v.1.15,2013-07-28 05:34:00,
2013-07-27 23:39:00,68.9,60.3,29.63,ESE,108,5.0,8.0,74,0.00,,,0.08,Wunderground v.1.15,2013-07-28 05:39:00,
2013-07-27 23:44:00,68.6,60.4,29.64,East,94,6.0,10.0,75,0.00,,,0.08,Wunderground v.1.15,2013-07-28 05:44:00,
2013-07-27 23:49:00,68.2,60.3,29.65,ESE,117,5.0,5.0,76,0.04,,,0.09,Wunderground v.1.15,2013-07-28 05:49:00,
2013-07-27 23:59:00,67.4,60.3,29.65,East,96,5.0,5.0,78,0.10,,,0.10,Wunderground v.1.15,2013-07-28 05:59:00,